Other Public Products
Issued by NWS Grand Forks, ND

Home | Current Version | Previous Version | Text Only | Print | Product List | Glossary On
Versions: 1 2 3 4 5 6 7 8 9 10 11 12 13 14 15 16 17 18 19 20 21 22 23 24 25 26 27 28 29 30 31 32 33 34 35 36 37 38 39 40 41 42 43 44 45 46 47 48 49 50
000
FPUS83 KFGF 071531
OPUFGF
PRAIRIE TO PINES WEATHER ROUNDUP
NATIONAL WEATHER SERVICE EASTERN NORTH DAKOTA/GRAND FORKS ND
1000 AM CDT TUE JUL 07 2015

 **SATELLITE DATA USED TO AUGMENT SKY COVER AT AUTOMATED STATIONS**
 *****  WEATHER ACROSS EASTERN NORTH DAKOTA  *****

CITY           SKY/WX    TMP DP  RH WIND       PRES   REMARKS
GRAND FORKS    SUNNY     64  46  52 W8        30.18F
GRAND FORKS AF SUNNY     65  50  58 W7        30.18F
GRAND CITY NWS   N/A     64 N/A N/A SW7         N/A
BUXTON         NOT AVBL
DEVILS LAKE    SUNNY     63  48  59 SW8       30.16F
FARGO          SUNNY     64  45  49 W3        30.21S
WAHPETON ARPT  SUNNY     63  41  45 NE5       30.21F
$$

 *****  WEATHER ACROSS CENTRAL AND WESTERN NORTH DAKOTA  *****

CITY           SKY/WX    TMP DP  RH WIND       PRES   REMARKS
JAMESTOWN      SUNNY     62  48  60 VRB3      30.19F
BISMARCK       SUNNY     64  53  67 S12       30.17F
MINOT          SUNNY     65  49  56 S13       30.13F
MINOT AFB      SUNNY     66  57  71 S9        30.12F
GARRISON         N/A     61  53  75 S12       30.14F
WILLISTON      CLOUDY    65  53  65 S9        30.10F HAZE
DICKINSON      SUNNY     64  54  69 S13       30.11F HAZE
HETTINGER      SUNNY     64  55  72 SE8       30.14F HAZE
$$

 *****  OTHER OBSERVATIONS NORTHEAST NORTH DAKOTA  *****

CITY           SKY/WX    TMP DP  RH WIND       PRES   REMARKS
WALHALLA       FAIR      64  52  63 MISG      30.15F
LANGDON        FAIR      64  52  63 SW12      30.17F
CAVALIER       FAIR      64  50  59 W7        30.16S
GRAFTON        FAIR      64  50  59 SW9       30.18F
CANDO          FAIR      64  50  59 SW12      30.16F
FORT TOTTEN      N/A     63  53  69 SW6       29.95S
ROLLA          FAIR      59  50  72 SW13      30.16S
RUGBY          NOT AVBL
 ***** THE ABOVE OBSERVATIONS ARE NON NWS ARE NOT QUALITY
        CONTROLLED AND MAY MIS-REPORT RAIN FOR SNOW...
$$

 *****  OTHER OBSERVATIONS SOUTHEAST NORTH DAKOTA *****

CITY           SKY/WX    TMP DP  RH WIND       PRES   REMARKS
COOPERSTOWN    NOT AVBL
VALLEY CITY    FAIR      63  46  55 SE3       30.20F
OAKES            N/A     63  48  59 S6        30.20F
GWINNER        FAIR      63  45  51 SE3       30.21F
SHEYENNE NWR     N/A     65  47  52 CALM      29.95
BUFFALO        NOT AVBL
WYNDMERE         N/A     63  46  55 NW1         N/A
 ***** THE ABOVE OBSERVATIONS ARE NON NWS ARE NOT QUALITY
       CONTROLLED AND MAY MIS-REPORT RAIN FOR SNOW...
$$

  *****  WEATHER ACROSS NORTHERN MINNESOTA  *****

CITY           SKY/WX    TMP DP  RH WIND       PRES   REMARKS
FLAG ISLAND    SUNNY     61  46  59 NW6       30.15R
WARROAD        SUNNY     63  52  67 SW6       30.17S
ROSEAU         SUNNY     64  52  63 W6        30.17F
HALLOCK        SUNNY     64  48  55 W8        30.17S
THF RVR FALLS  SUNNY     61  46  59 W9        30.20S
HALSTAD        NOT AVBL
FOSSTON        SUNNY     63  46  55 CALM      30.20F
BAUDETTE       SUNNY     63  48  58 NW8       30.16S
WASKISH        SUNNY     64  48  55 W7        30.17F
CROOKSTON      SUNNY     63  50  63 W6        30.20S
$$
  *****  WEATHER ACROSS CENTRAL AND WEST MINNESOTA  *****

CITY           SKY/WX    TMP DP  RH WIND       PRES   REMARKS
BEMIDJI        SUNNY     62  46  55 N8        30.19R
PARK RAPIDS    SUNNY     63  40  42 N8        30.19S
WADENA         SUNNY     61  41  48 N6        30.20S
DETROIT LAKES  SUNNY     63  41  45 CALM      30.22S
MOORHEAD       SUNNY     63  48  59 CALM      30.21F
FERGUS FALLS   SUNNY     63  45  51 N6        30.21S
ELBOW LAKE     FAIR      61  45  55 NE3       30.21S
MORRIS MN      SUNNY     64  48  55 NE5       30.20F
STAPLES        SUNNY     61  43  51 NW7       30.20S
WHEATON        SUNNY     61  45  55 NE6       30.23S
$$
  *****  WEATHER ELSEWHERE ACROSS MINNESOTA  *****

CITY           SKY/WX    TMP DP  RH WIND       PRES   REMARKS
DULUTH         MOSUNNY   62  45  53 N9        30.15S
INTRNTL FALLS  SUNNY     64  45  49 NW6       30.15S
ELY            MOSUNNY   61  43  51 NW7       30.14F
CLOQUET        SUNNY     63  43  48 N6        30.16S
BRAINERD       SUNNY     62  48  60 N8        30.19R
HIBBING        SUNNY     63  44  50 NW8       30.16S
ALEXANDRIA     SUNNY     62  44  51 N7        30.22S
SAINT CLOUD    SUNNY     62  45  53 N5        30.19R
MINNEAPOLIS    MOSUNNY   62  44  51 N9        30.17R
$$

  *****  WEATHER ACROSS SOUTH DAKOTA  *****

CITY           SKY/WX    TMP DP  RH WIND       PRES   REMARKS
SIOUX FALLS    MOSUNNY   61  46  57 NE14      30.22R
BROOKINGS      SUNNY     59  45  58 E10       30.23S
WATERTOWN      SUNNY     60  45  57 NE13      30.21R
HURON          SUNNY     61  47  59 E10       30.21S
SISSETON         N/A     62  43  49 NE7       30.21S
ABERDEEN       SUNNY     62  48  60 E8        30.21R
MITCHELL       SUNNY     62  52  69 E9        30.22S
PIERRE         SUNNY     63  55  75 SE14      30.17S
MOBRIDGE       SUNNY     65  55  70 SE12      30.16S
RAPID CITY     MOSUNNY   65  59  81 SE12      30.15S
$$

  *****  SOME WEATHER IN NEARBY STATES *****

CITY           SKY/WX    TMP DP  RH WIND       PRES   REMARKS
GLASGOW MT     MOSUNNY   64  51  62 SE6       30.06S
GREAT FALLS MT MOSUNNY   59  51  75 W6        30.14R
CHEYENNE WY    CLOUDY    54  51  90 S13       30.25R FOG
SCOTTSBLUFF NE CLOUDY    66  55  67 SE10      30.20R HAZE
OMAHA NE       MOSUNNY   64  48  56 N18       30.16S
DES MOINES IA  MOSUNNY   65  52  62 N13       30.10S
DAVENPORT IA   MOSUNNY   68  57  68 N13       30.03S HAZE
CHICAGO IL     CLOUDY    61  52  72 NE17G26   29.99R
EAU CLAIRE WI  PTSUNNY   62  44  51 N10G22    30.12S
LA CROSSE WI   MOSUNNY   62  46  55 N12       30.11R
$$

  *****  SOME NATIONAL WEATHER *****

CITY           SKY/WX    TMP DP  RH WIND       PRES   REMARKS
LA GUARDIA NY  PTSUNNY   84  71  65 S14       30.02F
RALEIGH NC     MOSUNNY   84  72  67 SW3       30.13F
ATLANTA GA     MOSUNNY   83  72  69 W7        30.19S
NEW ORLEANS LA MOSUNNY   88  74  63 S13       30.13R HX  96
OKLAHOMA CITY  CLOUDY    75  71  87 NE6       30.00R
ALBUQUERQUE NM MOSUNNY   67  57  70 E9        30.24S
SALT LAKE CITY MOSUNNY   73  55  53 SE10      30.07S
LOS ANGELES CA CLOUDY    64  60  87 S5        30.01R
BOISE ID       CLOUDY    77  50  38 SE10      29.99S
SEATTLE WA     CLOUDY    60  53  77 SW5       30.08R
$$

*** WEATHER ACROSS MANITOBA...SASKATCHEWAN AND ONTARIO ***
                ***ONTARIO***

CITY           SKY/WX    TMP DP  RH WIND       PRES   REMARKS
GERALDTON      PTSUNNY   61  43  51 NW14      30.00R
THUNDER BAY    MOSUNNY   64  48  55 NW10G20   30.07F
SIOUX LOOKOUT  MOSUNNY   64  48  55 NW9       30.10S
TORONTO        PTSUNNY   81  68  65 S12G18    29.85F
BIG TROUT LK   SUNNY     64  54  68 W13G18    29.87F
PICKLE LAKE    PTSUNNY   61  46  59 W9        30.01S
DRYDEN         SUNNY     63  45  51 W8        30.12S
KENORA         MOSUNNY   61  45  55 W5        30.14
$$
                *** MANITOBA***

CITY           SKY/WX    TMP DP  RH WIND       PRES   REMARKS
BRANDON        PTSUNNY   64  52  63 SW9       30.11F
DAUPHIN        SUNNY     68  48  49 W15G21    30.04F
ISLAND LAKE    MOSUNNY   66  52  59 SW7G20    29.91F
PILOT MOUND      N/A     63  52  67 SW12        N/A
THE PAS        PTSUNNY   63  50  63 W14       29.88  SMOKE
THOMPSON         N/A     61  50  67 SW12G17   29.74F SMOKE
WINNIPEG       MOSUNNY   64  50  59 W7        30.13F
LYNN LAKE      LGT RAIN  48  45  87 N14G22    29.84R
CHURCHILL      CLOUDY    46  45  93 N12       29.68R
GILLAM           N/A     61  52  72 SW10      29.71F SMOKE
$$
                ***SASKATCHEWAN***

CITY           SKY/WX    TMP DP  RH WIND       PRES   REMARKS
ESTEVAN        PTSUNNY   66  57  72 SW13      30.09F
KINDERSLEY     MOSUNNY   64  50  59 NW9       30.04R
LLOYDMINSTER   CLOUDY    52  45  76 N14       30.11R
PRINCE ALBERT  MOSUNNY   59  52  77 N10       29.99R SMOKE
REGINA         PTSUNNY   63  55  77 S5        30.03F


USA.gov is the U.S. government's official web portal to all federal, state and local government web resources and services.